Weather History for McAlester, OK

Change the Weather History Date:

Tuesday, September 3, 2013

  Actual Average Record
Temperature  
Mean Temperature 76 °F -  
Max Temperature 91 °F 89 °F 108 °F (2000)
Min Temperature 62 °F 66 °F 51 °F (1974)
Cooling Degree Days 12    
Growing Degree Days 26 (Base 50)    
Moisture  
Dew Point 62 °F    
Average Humidity 66    
Maximum Humidity 96    
Minimum Humidity 37    
Precipitation  
Precipitation 0.00 in - - ()
Sea Level Pressure  
Sea Level Pressure 29.98 in    
Wind  
Wind Speed 3 mph (NNE)    
Max Wind Speed 12 mph    
Max Gust Speed 18 mph    
Visibility 10 miles    
Events      
Averages and records for this station are not official NWS values.
T = Trace of Precipitation, MM = Missing Value Source: NWS Daily Summary

Daily Weather History Graph

Daily Weather History Graph

Search for Another Location

Airport:

Trip Planner

Search our weather history database for the weather conditions in past years. The results will help you decide how hot, cold, wet, or windy it might be!

Date:

Astronomy

Sep. 03, 2013 Rise Set
Actual Time 6:57 AM CDT 7:46 PM CDT
Civil Twilight 6:31 AM CDT 8:12 PM CDT
Nautical Twilight 6:01 AM CDT 8:42 PM CDT
Astronomical Twilight 5:30 AM CDT 9:13 PM CDT
Moon 5:14 AM CDT (9/3) 6:33 PM CDT (9/3)
Length of Visible Light 13h 40m
Length of Day
12h 48m
Waning Crescent, 3% of the Moon is Illuminated
Sep 3
Waning Crescent
Sep 5
New
Sep 12
First Quarter
Sep 19
Full
Sep 26
Last Quarter

Hourly Weather History & Observations

Time (CDT) Temp. Heat Index Dew Point Humidity Pressure Visibility Wind Dir Wind Speed Gust Speed Precip Events Conditions
12:53 AM 64.0 °F - 61.0 °F 90% 29.97 in 10.0 mi Calm Calm - N/A   Clear
1:53 AM 63.0 °F - 61.0 °F 93% 29.96 in 10.0 mi Calm Calm - N/A   Scattered Clouds
2:53 AM 63.0 °F - 61.0 °F 93% 29.96 in 10.0 mi NNE 3.5 mph - N/A   Clear
3:53 AM 63.0 °F - 61.0 °F 93% 29.97 in 10.0 mi Calm Calm - N/A   Clear
4:53 AM 62.1 °F - 61.0 °F 96% 29.97 in 10.0 mi Calm Calm - N/A   Clear
5:53 AM 62.1 °F - 60.1 °F 93% 29.98 in 10.0 mi Calm Calm - N/A   Mostly Cloudy
6:53 AM 63.0 °F - 61.0 °F 93% 29.99 in 10.0 mi Calm Calm - N/A   Scattered Clouds
7:53 AM 69.1 °F - 63.0 °F 81% 30.00 in 10.0 mi NNE 3.5 mph - N/A   Clear
8:53 AM 73.0 °F - 63.0 °F 71% 30.01 in 10.0 mi NE 5.8 mph - N/A   Clear
9:53 AM 78.1 °F - 63.0 °F 60% 30.02 in 10.0 mi ENE 5.8 mph - N/A   Partly Cloudy
10:53 AM 82.0 °F 83.4 °F 64.0 °F 54% 30.03 in 10.0 mi NE 5.8 mph - N/A   Clear
11:53 AM 84.9 °F 86.6 °F 64.9 °F 51% 30.02 in 10.0 mi Variable 3.5 mph - N/A   Partly Cloudy
12:53 PM 88.0 °F 90.3 °F 66.0 °F 48% 30.00 in 10.0 mi NE 5.8 mph - N/A   Clear
1:53 PM 90.0 °F 90.6 °F 63.0 °F 40% 29.99 in 10.0 mi North 9.2 mph - N/A   Partly Cloudy
2:53 PM 91.9 °F 92.9 °F 63.0 °F 38% 29.96 in 10.0 mi North 10.4 mph - N/A   Clear
3:53 PM 91.0 °F 91.9 °F 63.0 °F 39% 29.95 in 10.0 mi North 9.2 mph - N/A   Clear
4:53 PM 91.0 °F 91.5 °F 62.1 °F 38% 29.94 in 10.0 mi NNE 11.5 mph - N/A   Clear
5:53 PM 90.0 °F 90.0 °F 61.0 °F 38% 29.93 in 10.0 mi NNE 8.1 mph 18.4 mph N/A   Clear
6:53 PM 88.0 °F 87.1 °F 59.0 °F 37% 29.93 in 10.0 mi NNE 8.1 mph - N/A   Clear
7:53 PM 84.0 °F 84.5 °F 62.1 °F 47% 29.94 in 10.0 mi NE 4.6 mph - N/A   Clear
8:53 PM 75.9 °F - 64.0 °F 67% 29.96 in 10.0 mi Calm Calm - N/A   Clear
9:53 PM 73.0 °F - 64.0 °F 73% 29.99 in 10.0 mi Calm Calm - N/A   Clear
10:53 PM 71.1 °F - 64.0 °F 78% 29.99 in 10.0 mi Calm Calm - N/A   Scattered Clouds
11:53 PM 69.1 °F - 64.0 °F 84% 30.00 in 10.0 mi Calm Calm - N/A   Clear